Theta_e
335 335 336 335 335 334 333 331 331 330 331 331 331 330 329 329 329 328 328 328 328 328 328 327 327 327 326 326 325 325 325 326 327 328 328 327 327 326 320 322 324 327 330 331 333 333 334 333 334 334 333 333 334 334 334 334 334 333 334 333 333 334 334 334 333 332 331 330 330 329 328 328 328 328 327 327 326 326 325 326 326 326 325 325 326
334 335 335 334 334 335 334 332 331 331 330 329 330 330 328 328 328 327 327 327 326 326 326 326 326 326 325 325 325 324 325 325 327 327 328 327 327 327 319 320 322 324 327 329 332 333 333 333 334 334 333 333 333 333 334 334 335 335 335 334 334 334 334 334 334 334 332 331 331 330 329 328 329 328 327 327 326 326 326 326 326 326 326 326 326
333 333 333 334 335 335 334 332 330 331 331 329 329 329 329 328 327 326 326 325 326 326 326 325 324 324 325 325 325 325 325 326 326 327 327 326 326 326 327 319 320 322 325 328 330 332 333 333 333 334 334 335 335 333 333 334 334 335 335 335 334 334 334 334 334 334 333 333 332 331 330 329 328 327 326 326 326 325 326 326 326 326 326 326 326
333 333 333 332 331 331 332 331 330 331 331 330 329 330 329 329 329 329 328 327 326 326 326 325 325 325 325 324 325 324 325 325 327 326 327 327 326 325 325 326 320 319 322 325 328 330 332 333 333 333 334 335 335 335 334 333 333 333 333 335 336 335 334 334 335 334 334 334 333 332 331 330 330 329 328 327 326 326 325 325 326 326 326 326 326
332 333 332 332 332 332 332 332 333 333 333 331 331 331 330 329 328 328 327 326 324 324 325 324 324 324 324 324 323 323 324 325 326 327 327 327 327 327 326 326 326 320 318 320 323 327 330 332 333 333 333 334 335 335 335 334 333 334 334 333 334 335 336 334 334 334 334 334 334 333 332 331 331 330 329 328 327 326 325 325 326 326 326 326 326
332 331 332 331 331 330 331 331 332 333 331 330 330 330 329 329 328 327 323 325 324 324 323 322 322 323 323 323 323 323 325 325 325 325 327 327 328 329 328 328 328 329 328 319 319 323 327 330 332 333 333 333 334 335 334 334 335 334 333 334 334 334 334 334 334 334 334 334 334 334 333 333 332 331 330 330 328 327 326 325 326 326 326 326 326
332 330 330 331 330 329 329 329 330 331 331 331 330 330 329 328 327 325 325 325 324 324 323 322 322 321 322 323 323 323 324 324 325 325 325 326 327 328 328 328 329 329 329 329 321 319 323 326 331 332 333 333 333 334 335 335 333 334 334 334 335 335 335 334 334 335 335 335 335 334 334 333 333 332 331 331 330 328 327 326 325 324 325 325 325
332 331 330 329 328 329 329 330 330 330 331 330 330 327 327 326 327 326 324 323 323 324 324 323 322 321 323 323 322 322 323 324 324 324 325 325 325 326 327 328 328 329 324 328 328 326 320 323 326 330 331 332 333 334 334 335 334 334 334 335 335 335 334 334 335 334 335 335 335 335 334 334 333 333 332 331 331 329 328 327 327 326 325 325 325
331 331 330 330 329 328 328 329 330 329 329 329 330 329 329 328 327 328 326 323 324 324 324 323 323 322 322 323 323 322 323 323 324 325 326 324 324 325 326 327 327 319 327 328 328 328 323 319 322 325 326 328 331 333 333 335 335 336 334 335 335 335 334 334 334 335 334 335 336 336 335 334 334 333 333 332 332 331 329 329 328 327 326 326 325
331 331 330 330 330 329 329 328 328 327 327 326 326 327 328 327 325 327 326 325 324 322 321 322 322 322 321 322 323 323 322 322 323 322 324 323 323 323 324 326 326 327 327 327 327 327 328 324 319 320 320 321 325 330 333 333 335 336 336 335 334 335 335 334 334 334 334 334 335 335 336 336 335 334 333 333 332 332 331 330 329 329 328 327 327
331 330 330 329 329 329 329 330 328 327 326 325 326 326 326 326 324 323 324 324 323 323 322 322 321 322 322 322 322 322 323 324 323 322 322 323 323 322 324 324 325 326 327 327 327 327 327 327 327 325 323 317 321 325 328 332 333 334 336 336 335 335 335 334 335 334 334 333 334 335 336 337 336 335 334 333 333 333 332 331 331 330 329 329 328
331 330 330 329 329 329 329 330 329 328 326 326 325 325 325 324 324 323 323 323 324 324 323 322 321 321 320 320 321 321 321 322 322 322 322 323 323 323 323 324 324 325 325 326 325 326 325 325 323 326 326 322 317 320 322 327 328 332 334 336 336 336 335 335 335 335 335 335 334 334 335 336 337 336 335 334 333 333 333 332 332 331 331 330 329
330 331 330 327 329 330 330 330 330 328 327 326 327 327 327 326 324 324 323 321 322 324 324 325 320 318 319 319 320 322 322 323 323 323 323 324 324 323 323 323 324 325 325 325 325 324 325 324 324 325 325 326 324 317 318 321 322 328 332 334 335 336 336 335 334 335 335 335 335 335 334 334 336 337 336 335 333 333 333 333 333 332 331 331 330
330 331 330 330 329 329 330 330 329 328 328 328 328 325 327 326 325 323 324 322 321 323 323 323 317 315 313 315 318 321 322 323 322 323 324 324 324 324 324 324 324 325 325 325 324 324 324 324 324 324 324 324 325 326 323 320 320 322 328 332 333 335 336 336 335 335 334 334 335 335 335 335 335 336 336 336 335 334 334 333 333 333 332 331 331
330 329 329 329 329 329 330 330 330 329 327 326 326 326 326 326 325 324 323 323 322 323 322 322 316 317 317 314 312 313 318 320 322 323 323 324 325 324 325 325 325 326 326 325 324 324 324 324 324 324 323 323 323 324 326 322 322 321 324 326 328 334 335 335 335 335 334 334 334 335 335 335 335 335 337 336 335 334 334 333 333 333 332 332 331
330 330 329 329 329 329 330 330 330 329 328 326 326 325 326 326 325 324 324 321 322 321 322 322 319 318 312 313 314 312 308 312 318 322 323 324 325 325 325 325 326 326 326 324 324 324 324 324 323 323 323 323 323 323 325 326 324 322 322 321 322 328 332 335 335 335 334 334 334 334 335 335 335 335 336 337 336 335 334 333 332 332 332 331 331
330 330 329 328 329 329 329 330 330 330 329 327 327 327 326 327 326 324 324 322 321 322 322 322 321 321 317 314 313 312 311 313 314 314 319 319 322 324 324 325 324 325 324 324 324 324 324 324 324 323 323 324 324 324 324 325 325 321 322 319 322 325 328 332 334 335 334 334 334 334 334 334 334 335 336 337 336 335 335 334 333 332 332 331 331
331 331 330 328 329 329 330 329 330 329 329 328 328 327 327 326 326 326 325 325 323 322 321 323 322 321 321 320 317 311 314 317 313 308 317 317 319 320 322 322 324 323 323 323 323 323 323 323 324 323 323 323 324 324 324 325 324 324 324 324 324 325 327 329 331 334 334 334 334 334 334 334 334 334 335 336 336 335 334 333 333 332 332 332 331
331 331 331 330 329 330 330 329 329 330 329 328 327 327 328 328 327 326 325 325 324 320 321 322 321 321 321 320 319 320 320 316 310 313 310 317 317 320 318 321 321 322 322 322 323 323 323 323 323 323 323 323 323 324 324 324 322 323 324 324 325 325 326 327 328 331 333 333 334 333 334 334 334 334 334 335 335 336 336 335 334 333 332 332 332
332 331 331 330 330 329 330 329 329 329 328 328 328 328 329 329 328 327 326 325 324 321 321 322 319 318 320 319 319 319 319 319 318 314 312 310 313 317 317 318 320 320 320 321 322 322 322 323 323 323 323 324 324 324 324 324 325 324 322 322 324 325 326 327 328 328 329 331 333 333 334 335 334 334 334 335 335 335 335 335 334 334 333 332 332
332 332 332 331 329 329 329 329 329 329 328 328 329 329 328 328 327 326 325 325 325 324 323 322 322 321 320 317 318 318 318 318 318 317 313 311 311 313 313 317 317 317 318 320 320 322 323 323 324 324 323 324 324 324 324 324 324 324 322 322 323 325 326 327 327 328 329 329 331 331 332 334 334 334 334 334 334 334 335 335 335 334 334 333 332
331 331 331 331 331 330 329 329 329 328 327 328 328 328 328 328 328 327 326 325 325 324 323 323 323 322 322 321 317 316 316 315 316 316 315 314 311 312 314 313 312 315 319 319 320 320 322 322 323 323 323 323 324 324 324 324 324 324 320 315 319 322 325 326 328 328 328 329 329 329 330 331 332 333 333 333 334 334 334 334 334 335 334 333 332
330 330 331 331 331 330 330 329 329 328 327 328 327 327 328 328 328 328 327 325 324 324 323 323 323 322 323 321 319 318 315 314 314 315 314 313 311 311 313 314 314 313 317 319 319 320 320 321 321 322 322 323 323 324 323 324 315 316 311 311 314 318 321 324 327 328 328 329 328 328 329 329 331 332 332 333 333 333 333 333 333 333 334 334 333
329 329 329 330 330 330 330 329 328 329 328 328 328 328 328 328 327 327 326 326 326 324 324 322 322 322 322 322 321 321 320 318 319 318 316 314 314 314 314 316 316 317 318 318 319 319 320 320 320 321 321 322 323 323 323 322 320 309 311 311 312 316 321 324 326 327 327 328 328 328 329 329 330 330 330 331 332 332 332 332 333 333 333 333 334
328 328 329 330 329 329 329 329 328 328 328 329 328 328 328 328 327 327 326 326 325 325 323 322 322 321 321 322 322 321 321 322 321 320 319 318 316 313 315 316 313 315 318 319 316 318 318 319 320 321 321 321 322 323 323 322 322 311 304 312 309 311 314 318 322 325 326 326 327 327 328 328 330 330 329 330 331 331 331 332 332 332 332 332 332
328 328 329 330 329 329 329 330 330 329 329 328 328 328 328 327 327 326 326 326 326 325 324 324 323 323 323 321 321 321 321 322 322 321 319 318 315 314 314 315 316 314 317 317 319 317 318 319 320 321 321 321 321 322 322 322 322 309 302 312 315 309 311 314 318 321 324 326 326 327 328 328 328 330 329 330 330 330 330 331 331 332 331 331 331
328 329 330 330 330 329 329 329 329 329 329 328 328 328 329 327 326 326 326 326 326 325 324 324 323 323 323 322 321 321 321 322 322 321 321 319 318 317 315 312 313 314 313 317 318 317 317 320 320 320 321 321 321 322 322 322 315 309 302 314 318 309 309 313 316 319 321 323 325 325 326 326 327 328 329 329 329 330 330 330 330 331 331 331 331
329 330 330 330 329 329 329 328 329 329 329 328 328 327 328 326 325 325 325 326 325 325 324 324 323 323 323 323 322 321 321 322 322 321 321 320 320 319 317 314 311 309 313 313 315 316 321 319 321 320 320 320 321 321 316 317 321 308 301 318 318 316 308 309 314 317 319 320 322 323 324 325 326 327 328 328 328 328 329 329 329 329 329 329 330
329 329 330 330 329 329 328 328 328 328 328 328 328 328 327 327 325 325 324 326 324 324 324 324 324 324 323 323 321 321 321 322 321 321 321 320 320 319 318 316 314 310 308 309 312 313 318 320 317 320 320 321 320 321 321 320 315 314 320 318 318 319 311 308 312 315 316 318 320 322 323 323 324 325 326 327 328 328 328 328 328 328 329 330 330
329 330 330 329 329 325 328 328 328 328 327 328 328 327 327 326 326 325 325 326 325 324 324 324 324 324 323 322 322 321 321 321 321 322 321 320 319 319 318 318 317 312 311 309 309 314 315 319 319 318 318 319 320 321 321 321 310 314 319 320 319 320 310 307 309 311 312 314 316 319 321 323 323 324 325 325 326 326 328 329 329 329 329 330 329
327 328 328 328 328 328 327 327 327 327 327 327 327 327 326 325 325 324 325 325 324 323 324 323 323 323 322 322 322 321 321 321 321 321 320 320 319 319 318 318 316 315 313 312 308 312 316 314 317 318 319 319 320 320 322 321 315 314 318 320 321 310 305 310 305 308 311 314 316 317 319 322 323 324 323 325 325 327 327 328 329 329 329 329 329
327 327 327 327 327 327 327 327 326 327 326 326 326 326 326 325 325 324 324 324 323 323 323 324 323 322 321 321 321 321 321 321 320 320 320 320 319 319 319 318 316 316 315 312 310 309 315 316 317 319 319 319 320 317 318 320 318 305 318 319 320 306 312 316 305 304 307 310 312 313 315 317 319 322 323 323 324 325 327 327 329 329 329 328 326
326 326 326 327 327 327 327 326 326 326 326 325 326 325 325 324 324 324 324 323 323 322 322 322 323 322 321 320 321 321 322 320 320 320 319 319 319 318 318 317 316 316 315 312 310 309 313 317 317 317 319 320 318 317 316 318 320 319 311 317 318 318 318 317 316 305 304 305 307 310 312 312 313 316 318 320 321 322 323 325 326 327 325 322 321
325 325 326 326 327 327 326 326 326 325 325 325 325 325 324 324 324 324 323 323 322 322 322 321 322 322 321 320 320 321 321 320 320 319 319 318 318 317 316 316 315 315 316 313 312 310 309 314 314 317 317 319 316 319 316 317 318 319 319 317 317 318 318 318 317 318 307 306 306 308 309 310 310 310 310 312 315 316 318 319 318 317 317 317 317
323 324 325 326 326 326 326 326 326 325 325 325 325 325 324 323 323 323 323 322 322 321 321 320 320 321 320 319 319 320 321 319 319 319 319 318 318 317 316 316 315 315 316 315 313 310 310 311 314 314 315 317 316 317 318 318 318 319 318 318 317 317 317 317 317 319 309 308 307 307 308 308 309 309 309 308 308 309 310 311 312 312 313 313 314
321 323 325 325 325 325 325 325 325 325 325 325 324 324 324 324 323 323 323 322 322 322 322 321 320 320 319 319 319 319 319 318 318 318 318 318 317 316 316 316 315 314 315 315 315 312 311 310 312 313 314 314 315 318 319 318 317 316 316 317 319 318 318 318 317 317 313 308 308 307 307 307 307 307 308 307 307 308 308 308 309 309 310 310 311
320 321 323 325 324 324 324 325 325 324 325 325 324 324 324 324 323 323 323 322 322 322 322 322 314 320 319 319 319 319 319 317 317 317 317 316 316 316 315 316 314 314 314 314 313 313 311 310 311 314 314 314 316 317 318 316 316 316 315 315 316 317 318 319 319 317 308 307 305 304 305 305 305 306 307 307 307 306 307 306 306 306 306 307 308
317 319 321 322 323 323 324 324 325 325 325 325 324 324 324 324 323 323 323 322 322 322 322 322 321 321 320 319 319 319 318 316 316 316 316 316 316 315 314 314 314 313 313 312 312 312 312 311 311 311 312 312 312 314 315 315 314 313 313 313 313 314 314 315 317 318 318 317 316 314 305 304 304 304 305 306 305 305 305 305 305 304 304 305 306
315 316 318 320 321 322 322 323 324 324 324 324 324 324 324 323 323 322 322 321 321 321 322 321 321 321 320 320 319 320 318 317 316 316 315 315 315 314 314 314 314 313 312 312 312 311 311 310 311 311 311 311 311 310 313 314 314 313 312 311 310 311 311 312 312 315 316 316 311 306 308 308 305 306 306 304 304 304 304 304 303 302 302 302 304
311 313 315 317 319 320 321 322 323 324 324 324 324 324 323 323 322 322 321 321 320 320 321 321 321 320 320 320 319 319 318 318 318 317 317 315 315 313 314 314 314 313 312 312 311 311 310 310 310 309 310 309 309 310 300 301 302 304 303 306 309 312 311 311 311 312 314 314 314 315 308 305 304 304 302 303 302 302 302 302 301 300 300 302 303
308 309 312 314 315 317 318 319 320 321 321 321 322 322 322 322 322 321 321 321 320 319 319 319 320 319 318 319 318 319 317 306 304 306 308 308 316 313 313 313 312 312 312 312 311 311 310 309 309 310 309 309 309 308 305 304 304 307 311 310 309 310 312 313 314 313 313 313 314 314 315 315 312 312 312 311 311 306 304 300 302 300 300 302 303
304 305 307 309 311 313 315 316 317 317 318 319 311 304 306 319 321 321 321 320 320 319 317 317 317 317 316 317 317 304 301 300 299 299 300 301 302 311 316 314 312 312 311 311 310 310 310 308 308 308 307 307 308 308 308 308 310 308 306 306 307 309 306 306 307 310 311 310 309 308 309 311 311 311 313 313 314 311 312 311 309 306 304 303 303
298 299 300 302 304 306 308 310 312 313 314 314 303 302 301 301 312 319 319 319 319 318 316 315 315 314 315 315 316 307 301 298 301 297 299 300 300 299 300 303 304 313 312 310 310 310 308 307 309 309 308 308 309 308 308 310 311 311 311 309 307 306 305 303 303 302 306 308 303 303 305 311 311 309 311 312 313 313 313 312 305 302 302 303 303
299 299 298 299 301 303 305 306 306 307 309 301 300 300 300 300 299 310 316 317 317 317 315 314 314 314 314 315 315 315 314 312 313 310 302 297 298 298 298 298 299 300 303 310 309 309 309 308 307 308 308 308 309 310 310 309 310 307 307 307 306 305 303 301 301 302 301 304 303 303 305 309 310 309 308 310 311 312 311 306 305 304 304 303 303
298 298 299 300 301 302 303 303 304 305 306 300 299 299 298 298 299 300 309 313 314 313 313 313 313 313 312 312 312 313 315 300 303 311 313 310 298 296 296 296 296 297 299 299 299 306 312 310 309 308 308 308 308 308 308 308 307 307 306 304 303 302 302 302 303 304 307 305 305 304 303 306 306 305 304 307 308 309 310 303 302 303 303 303 302
297 298 298 298 300 301 302 302 304 305 305 292 293 294 295 295 296 297 305 308 310 310 311 311 312 312 312 311 311 311 312 311 310 310 311 311 311 309 304 301 302 300 296 295 296 295 296 303 307 307 309 308 308 309 307 307 307 305 305 305 304 302 301 303 307 308 300 301 302 301 301 301 302 303 302 306 307 307 307 305 304 303 303 302 302
297 297 297 298 299 299 299 299 300 301 294 291 292 292 293 294 295 295 302 305 306 307 309 309 309 310 311 311 311 311 311 311 310 308 308 309 309 309 309 308 306 305 306 305 304 303 301 302 303 304 306 308 308 308 307 307 307 308 309 307 306 305 303 299 300 298 296 293 296 297 298 300 297 300 303 306 306 307 308 304 303 302 302 302 301
295 295 296 295 295 295 295 297 298 296 292 290 291 291 292 294 294 299 300 301 302 302 303 304 304 302 299 299 301 302 302 301 291 292 295 303 304 304 304 305 305 303 303 301 299 298 300 303 304 304 304 304 300 301 303 305 306 306 301 299 298 297 297 298 298 297 296 296 296 298 297 300 298 300 302 302 303 303 304 304 301 301 301 301 301
293 294 294 292 293 294 294 294 296 294 291 288 289 290 291 292 295 298 297 298 298 299 299 297 296 295 295 295 296 296 296 296 292 293 294 295 299 297 298 296 296 297 298 299 297 296 295 294 294 294 294 295 296 297 297 297 295 299 298 298 297 297 297 297 298 298 298 297 295 296 298 298 297 298 296 296 296 300 297 298 300 300 300 300 299
294 293 293 292 291 290 289 289 289 292 290 287 288 290 291 291 291 297 297 297 296 295 296 295 295 295 292 286 290 295 295 294 292 293 293 296 298 298 297 296 296 297 297 295 298 298 293 294 292 293 293 293 293 294 295 295 295 296 296 296 295 296 296 295 296 297 297 296 294 295 292 296 292 293 295 295 297 291 292 297 298 298 297 297 297
290 290 290 291 290 289 288 288 285 288 289 287 288 289 290 290 292 295 295 296 295 294 294 294 294 293 293 290 288 290 292 292 292 293 292 293 295 295 295 295 295 295 295 293 294 293 295 294 296 296 297 295 297 298 297 293 292 291 299 299 297 295 295 295 294 294 294 296 296 295 296 296 296 294 294 295 296 296 290 291 293 291 290 292 293
Wind_Speed
10 9 9 10 10 9 9 10 9 9 8 9 9 9 8 8 7 8 8 8 8 8 8 9 8 8 9 9 9 9 9 8 7 7 8 8 8 8 11 10 11 12 12 13 14 14 16 17 18 18 17 17 16 16 16 16 16 16 15 15 16 16 18 18 18 17 16 15 16 15 15 16 15 15 15 14 14 14 14 14 14 14 14 15 14
10 9 10 10 10 10 10 10 10 9 9 10 9 9 9 9 8 7 7 8 8 8 8 9 9 9 9 10 9 9 9 9 8 7 8 8 8 8 10 12 11 13 13 14 14 15 16 16 18 19 19 19 18 17 17 18 17 17 17 16 15 16 16 18 18 18 18 17 17 16 16 16 16 16 16 16 16 16 16 16 16 15 15 15 15
10 10 10 10 10 10 11 11 10 9 10 9 9 9 9 10 9 8 7 8 8 8 8 9 10 9 9 8 9 8 9 9 9 9 9 8 8 9 9 13 13 12 14 15 16 16 16 17 18 19 20 20 20 19 19 18 18 19 18 18 18 17 17 18 18 19 19 19 19 17 17 16 17 18 18 18 17 17 17 17 17 17 17 16 16
10 10 10 10 10 11 11 11 10 9 10 10 10 9 9 9 10 9 9 9 8 8 8 9 9 9 9 10 10 10 9 9 9 11 11 9 8 8 8 9 13 15 15 16 17 17 17 18 18 19 20 21 21 21 21 20 20 20 20 20 20 19 19 18 18 19 19 20 21 20 18 17 18 18 18 18 19 18 18 18 18 18 18 17 17
9 10 11 11 11 11 11 10 8 9 11 11 12 10 10 10 11 10 10 9 10 11 9 10 11 11 11 12 11 11 10 9 10 11 12 12 10 9 9 9 9 13 17 17 17 18 19 19 19 19 20 22 22 23 22 22 22 21 20 20 20 21 21 20 19 19 20 20 20 22 22 20 19 18 19 19 20 19 19 19 19 19 18 18 18
11 10 10 10 11 11 12 11 10 11 11 10 10 10 10 11 11 10 10 9 10 12 11 11 11 11 11 12 12 11 10 11 10 10 11 12 12 11 9 9 9 9 9 16 19 17 20 20 20 20 21 21 23 23 25 24 23 23 23 21 21 21 21 21 21 20 20 21 21 21 21 21 21 20 20 20 20 20 20 20 19 19 19 19 19
12 11 11 10 10 10 10 11 10 10 9 9 10 10 10 11 10 11 11 11 11 10 11 11 11 11 11 10 11 11 11 11 10 11 13 12 12 12 12 11 10 10 10 9 14 20 19 20 21 21 21 22 22 23 24 25 26 24 24 24 22 22 22 21 19 18 20 21 22 21 21 22 23 23 21 21 21 21 21 20 20 20 20 21 20
13 12 11 12 11 10 10 9 11 10 10 10 10 12 11 11 11 11 11 12 11 12 10 11 11 14 12 12 11 11 11 10 11 11 12 12 12 12 12 11 12 11 11 10 10 11 19 20 21 22 22 22 23 24 24 25 26 27 26 25 24 23 22 22 20 19 17 19 21 22 22 22 23 24 24 22 21 22 22 22 22 22 21 21 22
14 14 12 12 12 12 12 11 10 11 11 11 11 11 11 10 11 12 13 12 12 13 10 11 12 13 12 12 12 12 12 10 11 11 12 14 14 13 13 13 12 13 12 11 11 11 13 19 19 21 21 21 22 24 24 25 26 26 28 26 26 24 23 22 21 19 19 19 18 22 22 22 22 23 24 23 23 23 23 23 22 22 22 21 23
15 14 13 13 12 12 13 13 12 12 11 11 11 10 11 11 12 12 13 12 12 13 13 13 12 12 12 12 12 13 14 13 11 11 13 14 13 13 12 12 12 12 11 11 11 11 11 13 18 20 21 21 21 23 24 26 26 26 27 28 28 26 25 25 24 21 20 19 19 19 21 22 23 23 24 24 24 25 25 24 23 23 22 22 22
15 15 14 12 12 13 13 14 13 12 12 12 12 12 12 12 13 13 12 13 12 12 12 11 11 10 11 14 13 13 12 13 12 12 11 12 14 14 12 13 12 12 12 11 10 10 11 10 9 9 13 22 22 22 24 25 26 26 27 28 28 29 28 27 24 22 20 19 19 19 19 21 22 24 24 25 25 24 25 25 26 25 25 23 23
15 15 15 13 13 13 14 14 13 13 13 13 13 12 13 14 15 15 14 12 11 12 12 12 12 13 14 14 14 14 16 14 14 15 14 15 14 12 12 12 12 12 12 11 10 10 10 11 11 10 10 14 22 23 23 23 24 24 27 27 28 29 29 27 26 24 22 20 20 20 19 20 22 22 24 25 24 25 25 26 27 26 26 25 23
15 15 15 15 14 14 14 15 14 14 14 15 15 15 14 13 12 12 14 14 12 11 12 10 12 13 14 15 14 13 16 16 17 15 16 14 12 12 12 11 12 11 11 10 11 10 10 11 10 10 11 9 11 21 24 24 24 23 26 27 28 28 28 29 29 26 24 22 22 21 21 20 20 21 22 23 25 25 25 25 27 28 28 27 26
15 15 15 15 15 14 15 15 14 14 15 15 15 15 15 14 12 12 12 13 13 11 11 9 11 12 10 9 9 10 13 14 16 16 16 14 13 12 12 12 12 11 10 10 10 11 11 10 11 11 11 10 10 9 12 17 19 22 24 26 27 28 29 29 28 28 25 23 22 22 22 22 21 20 23 24 24 25 26 26 26 27 28 29 29
16 14 14 15 16 14 14 14 15 14 14 15 15 16 15 16 16 13 12 12 12 11 12 13 10 8 9 8 9 6 5 8 11 15 14 13 12 13 12 12 13 11 9 9 9 10 10 10 11 11 11 11 10 10 10 12 14 19 24 25 25 27 28 29 29 28 27 24 23 23 23 23 24 23 20 23 24 26 26 27 27 27 28 29 29
16 16 15 15 16 16 15 14 15 14 14 14 15 16 16 15 15 16 14 13 12 13 13 13 13 8 7 9 5 2 9 7 6 6 11 13 12 12 11 11 11 11 9 10 10 9 9 10 11 11 12 11 11 11 11 10 13 16 20 23 24 24 26 28 29 29 28 26 25 24 24 23 23 25 23 24 25 25 27 28 28 28 28 28 29
16 17 16 17 16 16 16 15 15 15 14 15 15 16 16 15 16 15 17 15 13 12 11 14 16 15 9 4 5 5 7 6 3 8 9 8 12 12 10 11 10 9 9 10 9 9 9 10 10 10 11 11 11 11 11 11 11 12 15 18 19 24 25 27 28 28 28 27 26 26 25 25 24 23 23 24 27 27 28 27 27 26 27 28 28
16 17 17 16 17 18 17 16 16 15 15 15 14 14 16 17 16 15 16 18 15 12 13 12 15 16 16 14 9 8 6 2 4 5 3 6 6 9 11 11 9 9 9 9 9 9 9 9 9 10 10 10 10 10 10 11 11 10 11 12 20 23 25 26 27 28 27 27 27 27 27 26 25 25 24 23 24 25 26 27 28 27 27 27 27
15 16 17 17 17 17 18 17 16 15 15 15 15 17 15 15 14 15 16 13 14 15 16 12 10 14 15 19 17 13 9 6 7 6 11 3 7 6 7 8 9 10 9 10 10 9 8 8 9 9 9 10 10 10 10 10 13 13 14 15 17 21 24 25 26 27 28 27 28 28 27 28 27 26 26 25 25 24 25 26 25 26 27 28 28
14 15 15 16 17 17 17 16 16 16 15 15 17 16 14 14 14 16 14 14 16 16 14 13 13 12 14 17 18 16 17 17 15 11 9 11 11 3 3 6 6 7 9 9 9 10 9 8 9 8 8 9 9 9 9 10 10 11 12 18 20 19 21 24 25 26 27 27 27 27 27 27 27 27 27 26 26 26 25 25 26 25 27 29 29
14 15 15 16 15 16 17 17 17 17 15 16 17 17 18 16 15 14 16 16 15 15 14 14 14 14 11 13 15 15 14 16 15 14 13 12 14 12 9 8 9 12 11 10 9 9 9 9 8 9 8 9 9 9 9 9 9 10 12 15 19 21 22 22 23 24 25 27 27 27 28 28 28 29 28 27 27 26 26 25 25 27 26 27 28
12 15 14 15 16 16 15 18 18 17 15 16 17 17 17 17 18 15 15 16 15 15 17 15 13 14 15 12 11 13 13 13 15 15 15 16 14 10 10 5 7 8 8 11 11 11 10 9 9 9 9 9 8 9 9 10 9 9 11 14 16 18 20 23 23 24 25 26 26 27 27 28 29 29 29 29 28 27 27 27 27 26 27 28 28
11 12 14 15 15 16 16 17 17 16 15 17 17 17 16 17 15 16 16 18 15 17 13 16 15 15 15 14 14 13 13 13 13 13 14 13 13 16 15 12 10 11 11 8 8 10 11 11 11 10 10 9 9 9 9 10 12 12 12 12 14 16 18 20 22 24 25 26 27 26 26 27 27 27 28 28 29 28 28 28 28 29 29 28 28
11 11 12 14 14 14 16 16 17 17 15 15 15 17 16 15 14 13 16 17 17 15 16 15 19 16 16 15 15 14 14 14 13 13 13 14 14 13 11 10 9 10 5 6 10 11 11 12 11 11 10 9 9 9 9 10 11 14 12 15 15 16 18 20 22 23 24 25 26 26 26 27 27 27 26 27 28 29 30 30 29 28 30 30 27
11 12 13 16 14 14 15 15 14 16 18 16 16 19 15 15 16 16 16 17 17 17 16 18 18 17 16 16 15 15 15 14 14 13 13 13 13 15 14 10 12 11 8 5 6 8 11 12 10 10 10 11 10 9 9 9 9 10 14 13 16 15 16 18 21 23 24 26 26 26 26 25 26 27 27 27 26 27 29 30 28 27 27 27 28
12 13 13 14 13 14 14 14 14 15 15 16 17 18 15 15 16 16 17 16 16 18 18 19 18 19 16 15 15 15 15 15 15 14 14 14 14 15 14 12 13 13 9 8 8 9 9 11 10 10 10 11 10 10 10 10 10 12 14 11 12 15 16 18 19 22 24 24 25 25 25 25 26 26 25 26 26 26 26 27 28 27 26 26 26
11 11 11 12 13 13 14 14 14 14 14 14 13 14 14 14 16 17 16 16 17 17 17 17 18 19 19 18 15 15 15 15 15 15 14 15 15 14 13 14 13 12 12 10 10 13 13 6 8 9 9 8 9 10 10 10 11 9 10 9 9 12 14 17 19 21 22 23 23 25 25 26 26 25 24 23 23 24 25 26 27 27 26 26 26
11 10 11 11 12 13 13 14 14 14 14 14 14 13 14 16 14 15 18 15 16 19 17 17 20 21 20 18 16 17 15 15 16 15 15 14 15 13 14 14 14 14 9 12 11 12 9 9 6 9 9 9 8 9 9 9 8 8 9 8 8 9 14 16 17 19 20 20 22 23 24 24 24 25 24 23 22 23 23 24 25 25 26 25 25
12 11 11 10 11 12 12 13 14 14 14 15 15 14 14 14 13 15 18 17 17 18 17 17 18 18 17 19 17 17 16 15 16 15 15 13 14 13 14 14 13 14 12 12 13 11 8 7 6 3 8 6 6 6 7 7 8 7 7 8 8 8 10 16 15 17 17 18 19 21 21 22 23 24 25 25 24 22 23 23 24 24 24 25 27
11 10 9 11 10 11 12 12 12 13 14 14 14 14 14 13 15 17 18 16 17 16 15 16 18 16 17 16 16 16 16 16 16 16 15 13 14 14 15 14 14 15 13 13 14 8 12 7 7 8 4 5 5 5 5 6 7 9 7 8 8 8 11 14 14 15 16 16 17 18 20 21 22 23 24 24 25 26 25 23 23 24 27 29 29
12 12 10 12 12 11 12 13 12 13 13 14 13 13 15 15 14 17 16 17 17 17 16 15 16 16 17 18 17 16 15 17 17 15 15 11 15 15 15 14 13 15 15 14 14 9 8 13 7 4 8 6 5 6 5 5 6 8 8 8 8 10 12 11 14 15 15 17 17 18 19 21 22 23 23 23 26 26 28 27 27 29 29 30 30
12 12 13 13 13 13 12 12 13 12 12 13 13 13 13 14 15 15 15 17 18 18 17 16 13 14 17 18 18 17 15 15 16 15 15 14 13 15 15 14 14 14 14 15 14 17 6 13 13 12 6 7 6 6 6 5 7 11 8 8 9 12 10 7 12 16 17 16 17 17 18 19 20 21 22 23 25 26 27 28 28 29 30 29 25
12 12 13 13 14 14 14 12 13 13 13 13 12 12 13 14 13 15 17 18 19 18 17 18 17 15 17 17 18 18 17 16 15 15 14 14 10 14 15 14 14 13 13 13 13 15 8 7 12 15 13 9 7 6 8 7 7 8 10 7 8 8 7 7 7 15 17 17 16 17 19 19 19 19 19 21 22 24 25 26 27 26 24 22 21
12 14 14 12 13 14 13 14 13 14 14 14 13 12 13 14 14 11 13 18 19 19 17 18 17 13 15 17 18 18 15 17 17 17 15 13 10 14 16 11 13 11 10 11 13 12 15 7 8 7 10 9 11 7 9 9 12 10 10 11 7 9 9 8 6 8 15 16 17 19 20 21 20 18 18 18 19 20 20 21 21 21 19 19 19
12 13 13 13 14 13 14 14 14 14 15 14 13 13 14 14 14 15 16 15 19 18 18 19 17 17 17 17 18 16 11 16 17 17 16 15 13 14 13 10 12 12 11 12 11 13 14 12 9 10 8 7 10 9 10 11 11 10 12 11 10 8 6 7 7 7 14 16 17 19 20 20 20 19 18 18 18 18 19 20 20 20 20 19 18
13 12 12 13 13 13 14 14 14 14 14 13 13 13 14 14 14 15 15 16 18 18 18 17 17 16 17 17 18 14 14 16 17 15 14 14 12 11 12 11 11 13 12 12 13 12 12 13 10 10 8 9 11 11 8 9 10 10 9 10 8 9 9 9 9 9 11 18 19 19 19 20 20 18 18 18 18 18 19 20 20 20 20 21 19
12 12 12 11 13 13 13 14 13 14 14 13 14 14 13 13 14 14 14 16 18 19 18 17 15 16 16 17 17 14 12 13 13 12 11 13 12 11 12 11 11 11 10 11 12 12 13 14 12 8 8 9 10 9 7 8 9 10 9 9 10 11 12 10 6 8 13 16 16 16 17 19 19 19 20 20 19 19 19 19 19 18 19 20 20
12 12 12 11 10 13 13 13 13 13 13 13 14 13 13 13 13 14 14 16 18 18 18 17 17 16 17 17 16 15 13 13 13 12 12 13 12 13 14 12 10 9 11 11 11 12 13 14 12 11 8 10 9 9 9 8 9 10 8 8 8 9 9 11 12 8 5 7 7 9 13 16 18 21 22 20 19 18 19 19 17 18 19 19 19
11 11 11 12 11 11 13 13 13 13 13 12 12 12 13 13 13 15 16 17 17 17 17 17 16 16 17 15 14 13 13 12 13 12 12 12 12 14 13 13 12 12 12 11 11 12 12 13 12 12 11 8 9 10 7 9 10 10 10 9 10 7 8 10 10 10 9 9 12 15 13 11 13 13 16 19 19 19 19 17 17 18 17 18 18
10 10 11 11 10 9 11 11 12 12 13 12 12 12 13 13 13 16 16 15 16 17 17 17 15 13 12 10 12 13 13 13 13 12 12 12 11 12 12 11 11 12 12 11 12 12 12 12 11 10 9 9 7 7 1 2 4 6 5 9 13 10 9 8 9 8 7 8 9 9 11 12 12 14 15 14 15 17 19 18 18 17 18 18 18
7 8 9 9 9 10 9 9 10 11 12 14 13 13 14 15 15 16 16 15 15 16 15 16 14 13 12 11 12 12 13 15 16 15 14 13 11 11 11 10 11 12 11 11 10 10 10 11 11 9 9 9 8 6 6 7 9 12 11 10 11 9 8 9 9 8 7 7 7 9 10 8 8 8 7 8 10 16 17 18 14 16 18 18 19
7 7 7 8 9 9 10 11 11 10 10 10 8 11 10 11 14 13 13 14 13 13 12 12 11 11 12 11 11 15 16 17 17 17 17 18 19 16 12 9 11 12 11 11 10 9 9 10 11 9 10 11 9 9 9 9 10 7 7 7 10 8 5 10 8 7 5 7 8 9 7 6 7 8 8 9 8 10 8 8 9 12 15 20 21
8 7 7 7 8 8 8 8 8 8 9 8 6 7 10 12 11 11 13 14 12 10 10 11 11 10 10 11 11 12 14 15 15 17 18 20 20 20 21 19 14 12 11 12 11 10 9 10 10 10 10 12 10 6 9 10 9 11 11 8 9 8 9 9 11 2 4 7 7 7 11 8 8 9 10 10 7 6 7 8 12 15 17 17 17
7 6 6 7 7 7 6 7 8 7 7 6 8 8 10 11 12 11 10 11 9 9 9 10 10 9 10 10 10 10 10 11 12 13 15 18 20 21 21 19 19 19 17 13 10 10 9 10 11 11 11 11 10 7 7 7 9 8 8 8 9 9 9 9 8 8 4 8 9 7 9 4 6 9 10 11 7 7 8 11 14 15 15 17 18
5 5 6 6 6 6 7 8 8 8 7 8 11 11 11 11 12 11 8 9 9 8 7 8 8 8 8 8 9 9 9 14 12 12 11 11 15 19 20 20 20 19 18 19 16 12 8 10 11 11 10 8 10 8 6 7 6 9 7 8 8 7 9 9 9 9 6 7 5 6 10 8 6 7 8 7 6 6 7 11 16 17 16 17 17
4 5 5 6 6 6 6 6 6 6 3 8 7 7 7 8 9 8 7 8 9 8 7 7 6 7 8 8 8 9 9 9 9 10 10 11 10 10 11 11 11 14 15 17 18 18 14 11 11 12 7 4 9 7 5 5 6 8 7 9 7 8 10 12 12 9 1 6 7 5 9 3 6 6 9 6 7 8 7 11 15 15 16 16 16
4 4 4 4 4 5 5 4 4 3 3 7 7 7 7 5 5 5 5 7 7 7 7 7 7 8 8 8 8 9 7 8 6 6 7 8 8 8 8 8 7 8 8 8 8 9 10 10 11 12 11 8 8 6 3 2 4 5 4 5 3 3 5 4 5 2 3 3 5 4 8 3 5 6 8 6 5 7 7 9 13 15 16 15 16
3 3 2 1 1 2 2 3 2 1 2 8 7 7 6 6 5 1 2 3 4 4 4 4 4 3 3 3 3 3 3 1 6 6 3 1 4 6 6 6 4 2 1 1 3 3 2 2 3 3 3 3 5 5 5 5 5 4 4 4 3 3 4 6 7 1 4 4 6 7 5 8 5 7 8 3 4 8 7 7 8 12 14 15 14
3 2 0 0 1 1 2 3 2 1 2 7 8 7 7 7 3 2 1 0 1 2 1 2 3 4 5 4 4 4 4 5 6 6 5 4 1 1 1 0 0 1 1 1 2 1 2 2 2 2 3 5 6 6 6 6 4 3 1 3 4 3 5 8 8 5 6 5 5 8 5 8 2 6 5 4 5 9 4 5 6 11 15 13 12
3 3 3 2 3 4 4 4 4 2 2 5 7 6 6 6 4 0 0 1 1 2 2 2 3 4 5 8 7 4 4 4 6 8 8 4 2 2 1 1 2 2 2 2 2 0 3 2 3 2 2 3 5 6 6 6 6 4 3 6 4 2 6 5 8 4 3 3 5 7 3 7 1 2 3 4 5 2 4 6 7 8 8 7 9
4 4 4 3 3 4 4 4 5 3 3 4 6 6 6 6 3 1 1 2 2 1 1 0 2 2 3 5 7 5 4 3 5 6 6 4 2 1 1 1 2 2 1 4 4 5 5 5 4 4 4 2 2 3 4 6 6 5 5 6 2 3 5 5 5 4 5 4 6 9 6 3 3 3 3 3 5 2 0 1 2 2 3 3 4
Wind_Direction
227 227 230 235 233 231 237 236 235 237 235 237 237 236 235 238 241 244 244 246 249 251 254 259 259 258 257 260 259 260 263 265 263 259 256 255 251 235 198 215 229 239 246 250 257 260 260 256 253 253 252 245 240 241 241 241 239 239 237 236 242 243 236 237 234 230 228 229 230 231 226 224 219 218 219 221 224 225 226 230 233 231 231 230 231
229 227 225 228 229 229 238 237 236 239 239 239 237 238 240 239 237 239 246 247 250 253 254 255 254 254 255 255 254 258 260 261 261 259 255 253 251 253 204 215 217 233 239 244 245 250 254 257 256 254 252 252 247 243 240 241 240 240 237 236 235 239 238 235 237 236 234 226 231 232 230 225 225 221 220 220 222 223 225 226 227 230 230 232 230
230 229 228 225 224 231 239 240 238 239 237 240 240 239 242 242 240 234 237 241 245 248 249 252 253 251 249 249 253 255 258 262 266 262 256 252 252 252 241 209 220 222 233 238 242 243 245 250 253 255 253 251 252 249 244 240 239 238 239 239 237 236 237 237 236 234 234 234 231 230 232 229 228 227 226 223 222 222 222 225 227 228 228 229 231
228 230 234 234 237 239 241 240 237 239 241 241 240 239 242 242 242 241 240 244 249 250 249 252 253 252 252 254 255 257 258 261 265 264 261 257 251 251 249 242 215 221 226 232 237 239 240 241 246 250 252 252 249 250 249 245 243 240 239 237 239 240 237 235 235 237 235 233 235 235 229 228 227 227 227 226 225 223 223 224 226 228 228 228 228
229 228 232 237 240 240 241 237 233 232 240 243 246 242 242 240 244 245 246 246 250 249 249 251 256 258 258 259 259 256 254 255 261 263 262 262 256 250 251 244 245 213 219 228 230 235 238 238 239 242 246 250 249 248 248 248 246 243 242 243 242 239 237 239 240 233 231 235 234 234 235 230 229 230 229 228 228 228 226 226 226 227 229 230 229
235 234 233 236 238 240 241 238 235 236 245 248 244 243 243 243 248 246 241 240 245 248 248 250 252 256 257 258 256 255 252 252 254 260 264 264 263 258 252 251 243 243 227 213 225 227 232 236 236 236 239 243 247 248 247 247 248 247 244 242 242 243 243 241 238 233 227 229 232 233 233 234 231 229 228 229 226 231 227 226 228 229 229 230 231
232 235 236 238 239 241 242 245 247 244 239 233 235 236 236 239 241 241 245 245 245 247 246 250 256 259 260 256 253 253 253 252 251 256 259 262 263 262 260 255 250 246 239 240 215 220 225 229 234 236 234 237 241 244 246 246 245 246 246 245 243 242 242 243 243 236 226 224 223 225 229 230 232 233 232 231 233 228 224 224 229 232 232 233 232
227 228 235 238 241 241 239 239 240 243 243 242 240 242 243 245 246 246 248 248 252 254 253 254 255 262 258 254 255 255 257 255 253 254 259 261 261 261 258 254 252 247 244 242 245 229 214 223 228 233 234 234 235 238 241 242 243 242 244 245 246 245 244 242 240 240 238 227 220 221 223 227 230 231 231 231 231 229 223 220 220 224 229 233 234
222 224 229 233 239 244 245 241 240 240 241 242 241 240 239 235 238 240 247 258 255 250 239 248 255 258 256 257 257 258 259 257 254 255 258 258 258 258 257 254 253 252 249 244 243 246 223 218 224 227 233 234 234 234 237 239 239 240 241 242 243 246 245 244 242 240 237 236 224 219 223 225 224 228 231 228 228 228 228 225 222 223 224 227 234
221 221 225 230 234 237 243 243 241 240 242 243 243 242 240 240 244 241 243 244 248 251 255 255 257 260 262 261 257 256 258 255 254 253 253 254 258 257 255 256 249 245 243 244 245 242 244 223 219 227 230 232 234 235 234 235 237 237 238 240 241 243 244 245 244 240 238 235 232 225 217 220 222 223 224 227 228 230 230 230 230 229 227 226 227
219 219 222 225 229 233 236 240 240 241 240 239 241 241 241 242 244 246 243 244 248 248 251 256 259 261 255 255 259 254 252 247 248 252 253 254 255 254 255 251 251 248 246 242 240 241 242 249 240 222 226 225 229 230 233 234 234 235 237 238 240 241 242 243 244 244 241 238 236 233 223 217 220 225 225 224 225 227 229 231 231 230 230 232 234
219 217 219 221 225 228 233 236 235 235 236 234 235 236 237 238 241 243 246 243 240 247 249 254 260 258 262 267 263 263 259 258 259 255 253 250 249 246 244 244 244 244 242 241 243 243 243 246 244 242 240 222 220 227 229 232 232 232 233 236 238 240 241 242 242 241 241 239 237 235 233 223 219 222 225 228 226 227 228 230 231 231 231 231 230
222 219 221 220 225 231 232 231 231 232 232 233 234 236 237 239 241 236 239 244 244 238 242 239 253 265 265 267 266 256 253 249 250 247 245 245 241 240 239 242 241 240 237 235 236 236 240 240 240 240 240 246 224 218 224 228 231 232 231 233 236 238 240 242 242 242 240 238 236 235 234 235 227 218 222 225 230 230 228 228 230 233 232 232 230
227 223 224 224 225 228 230 230 228 229 231 234 233 233 233 236 233 239 232 234 242 234 231 218 239 247 266 277 272 258 247 242 239 239 239 238 237 235 237 236 237 234 232 231 230 232 232 233 233 236 237 238 241 237 218 223 229 230 232 232 233 235 237 239 241 243 242 240 237 234 234 233 233 227 220 224 226 228 230 233 232 232 235 235 235
228 225 227 228 228 228 230 231 230 229 229 230 229 230 230 230 226 230 239 234 239 238 233 218 240 234 250 283 284 298 232 220 235 238 233 233 229 230 231 233 233 229 230 229 231 227 226 225 228 229 232 232 236 237 234 223 218 218 224 230 232 233 235 237 238 241 243 241 240 238 235 234 233 232 217 222 226 230 231 233 233 234 234 236 236
229 227 227 228 228 229 230 230 231 227 229 231 229 229 227 226 226 229 229 242 235 238 226 223 224 218 240 225 257 271 291 246 224 228 221 228 220 226 222 230 230 229 224 229 230 228 224 223 223 226 226 228 230 232 233 234 223 216 220 225 229 232 234 235 237 239 240 241 240 239 239 237 234 232 228 221 225 229 234 236 237 237 237 236 235
227 226 225 227 228 229 229 231 232 230 229 233 234 232 228 227 225 224 222 227 239 241 226 216 221 218 224 212 223 234 239 288 342 268 196 208 216 221 224 223 225 221 219 228 227 227 226 225 223 224 226 226 228 230 231 232 231 228 226 223 222 228 232 235 236 237 238 239 240 239 238 239 239 236 233 226 230 231 233 234 237 239 241 242 241
227 228 226 225 227 227 228 230 230 231 230 232 235 236 231 228 225 224 228 227 234 241 244 216 218 216 223 234 249 269 306 348 7 289 134 214 207 206 219 221 223 221 222 226 222 220 222 226 223 226 225 226 229 228 229 230 229 227 226 226 216 224 229 232 235 237 238 239 240 239 237 237 239 239 239 235 232 233 237 240 241 242 242 241 239
220 224 231 229 229 229 229 229 231 232 232 233 234 234 234 230 227 224 227 228 224 235 237 236 211 223 221 231 244 257 266 295 272 309 294 233 201 202 215 213 220 224 222 225 222 219 222 220 224 225 225 223 226 229 229 230 228 229 231 233 227 221 225 230 233 235 238 239 240 241 239 237 237 238 239 239 238 233 232 236 238 239 240 241 242
219 219 221 225 229 234 232 231 231 233 232 233 239 241 237 234 226 226 225 225 224 225 234 233 225 229 221 232 236 242 247 250 252 258 275 292 279 200 251 219 222 233 232 232 226 226 228 221 220 221 224 223 223 225 228 230 229 229 232 229 231 229 226 228 231 234 238 240 241 241 239 239 238 238 238 239 239 239 237 234 237 239 242 243 242
216 218 219 221 223 229 231 231 232 232 230 235 239 242 240 237 228 222 222 224 226 228 232 234 229 238 223 224 234 238 240 240 245 241 240 250 264 272 259 214 235 246 236 224 226 229 226 228 223 218 223 225 222 224 227 228 228 227 232 227 227 229 230 230 231 232 235 237 240 242 242 242 242 241 240 239 239 239 240 237 237 239 239 242 243
215 217 219 219 220 220 225 232 231 231 231 232 239 240 238 237 234 229 225 226 229 228 231 235 234 238 239 234 225 231 236 239 237 235 236 234 252 263 269 233 229 242 227 225 224 228 232 233 231 223 226 231 227 226 225 228 228 229 228 224 225 227 230 233 233 234 236 239 241 243 244 245 245 245 245 243 241 239 240 240 240 242 243 244 245
217 214 214 217 221 223 223 225 233 230 228 234 237 239 238 237 235 233 229 228 230 231 227 235 236 236 236 237 237 229 224 226 231 230 227 235 238 249 263 259 250 259 249 209 226 230 229 228 227 224 224 229 230 227 227 229 230 229 229 227 225 227 229 233 237 238 240 240 242 242 243 243 245 246 246 246 245 242 240 240 242 242 243 245 245
220 218 215 213 216 218 219 224 230 231 228 229 236 240 239 238 236 228 233 232 233 232 232 232 231 236 237 238 238 238 237 238 244 242 234 241 244 254 255 268 264 239 246 197 224 237 233 232 227 225 227 229 230 226 231 237 238 227 223 232 232 231 232 233 238 239 241 242 243 243 244 243 243 243 244 246 246 244 244 243 242 242 242 244 245
218 218 217 212 212 215 216 217 218 224 234 229 234 238 234 236 239 233 233 232 232 230 232 232 232 232 234 238 240 238 241 243 246 245 247 245 246 256 257 262 269 277 273 247 240 224 229 238 230 229 229 232 232 227 233 235 242 217 208 238 227 229 230 235 239 243 243 243 244 245 246 245 245 244 244 243 244 245 245 244 243 242 242 241 244
219 215 216 214 214 217 218 219 220 220 219 226 231 236 229 232 238 238 234 234 235 233 231 233 236 236 235 238 236 238 240 243 245 245 244 245 246 248 260 262 265 271 276 266 259 269 245 222 222 228 232 234 234 234 237 242 244 233 206 227 233 220 226 229 235 242 244 245 246 246 245 246 247 248 248 246 244 243 243 244 244 243 242 242 242
229 227 211 211 215 217 218 220 218 220 220 219 220 223 225 229 240 241 241 241 238 236 234 229 234 234 234 235 237 237 238 239 242 242 240 241 243 247 250 260 266 261 263 263 267 241 251 242 200 211 219 228 229 231 233 234 241 230 192 220 244 224 214 220 228 234 240 244 247 248 249 250 249 248 248 249 248 245 243 242 242 243 242 241 241
241 232 216 207 215 217 216 219 219 219 218 217 216 219 219 229 227 237 241 241 240 236 235 233 234 234 237 236 237 238 237 238 240 241 239 238 240 241 242 246 256 267 265 270 262 265 243 245 222 207 219 224 233 241 238 242 248 224 196 232 237 232 211 217 223 231 236 241 246 249 251 252 253 252 252 250 249 247 244 242 242 242 242 241 240
243 232 222 211 216 218 222 221 218 219 220 220 220 222 220 221 220 231 240 240 240 239 238 236 237 235 237 235 236 238 236 238 241 241 241 238 237 237 236 237 239 250 260 265 263 263 267 211 250 210 207 209 230 231 241 234 233 219 228 223 230 242 210 212 220 227 233 238 244 247 250 253 255 255 255 253 252 251 247 242 239 238 238 239 240
242 238 225 229 224 216 223 225 221 218 218 220 221 221 220 227 228 235 240 242 243 242 238 237 238 237 238 237 235 237 235 237 240 240 239 236 236 234 235 236 234 237 245 252 262 235 265 248 229 256 196 208 195 224 226 229 216 209 223 224 225 230 220 211 219 224 230 233 237 242 246 250 253 256 257 256 254 253 253 247 239 236 236 237 239
242 240 241 239 233 227 221 226 223 220 218 220 221 221 226 234 230 237 237 239 242 243 239 234 237 237 237 237 237 238 236 236 239 240 239 228 235 235 235 234 232 234 241 247 261 244 219 265 247 225 250 207 196 212 210 225 215 209 221 223 224 228 221 218 219 224 227 229 230 232 237 243 249 254 259 259 257 255 252 254 249 243 240 240 240
245 244 243 239 233 230 225 223 224 222 220 218 217 218 220 226 232 232 237 238 240 240 239 236 234 233 236 238 237 238 236 236 239 239 239 234 229 234 234 232 234 231 234 242 243 259 198 258 266 269 225 240 200 214 217 221 219 213 228 223 223 226 221 227 215 223 229 228 229 230 233 238 243 248 252 256 258 258 257 255 255 250 246 244 241
246 242 240 238 237 234 231 226 223 222 221 218 213 215 219 223 221 225 235 239 239 239 239 240 235 233 235 238 239 237 236 235 238 239 238 236 222 230 233 233 236 230 228 233 247 262 253 234 261 264 266 254 239 203 233 225 229 226 226 232 232 229 224 220 220 219 228 234 234 233 233 235 238 241 244 249 253 256 258 258 257 256 253 247 240
245 245 241 238 237 237 235 232 226 223 222 221 215 215 220 222 221 219 225 236 239 241 239 240 236 233 236 238 240 238 235 236 236 238 236 235 225 230 232 221 230 227 215 233 246 253 264 239 249 251 257 243 262 212 236 228 248 237 231 238 221 232 235 228 224 233 230 232 233 234 235 236 237 238 240 242 246 249 251 254 258 263 264 259 251
250 244 242 238 234 229 232 232 229 226 223 222 220 217 220 221 223 228 230 227 238 238 238 238 236 234 236 237 239 237 231 236 236 237 235 235 231 229 226 219 227 227 224 226 240 250 257 257 236 251 240 242 246 253 235 243 250 249 251 244 237 231 222 232 236 236 238 238 234 235 237 239 239 237 236 238 240 243 246 248 251 253 258 259 256
256 252 246 242 239 236 233 230 227 228 225 222 222 221 221 221 223 223 222 229 236 239 240 239 236 232 233 236 239 233 230 232 235 235 235 236 230 229 235 230 229 230 228 226 228 242 251 260 235 228 239 245 253 250 239 239 247 249 244 251 242 243 235 231 233 242 240 240 238 234 236 240 242 241 241 241 240 240 242 244 244 246 249 252 253
260 259 255 245 241 241 239 236 233 230 227 223 222 222 222 221 223 225 225 232 239 240 240 239 234 232 233 235 238 234 226 229 234 231 231 229 231 234 235 233 229 232 230 229 232 235 246 251 256 230 233 239 248 253 239 249 249 249 250 250 250 252 253 249 225 238 254 256 253 241 238 240 239 239 241 241 239 239 241 242 242 242 244 246 247
261 257 253 250 240 242 245 243 239 237 232 228 227 226 224 223 224 227 228 236 240 241 241 239 237 234 235 236 237 235 225 227 233 231 230 231 231 232 235 234 232 231 233 232 233 236 241 249 252 257 228 237 242 242 239 235 252 258 250 239 248 252 256 256 252 244 215 236 237 233 234 238 237 237 240 242 243 243 243 242 241 241 242 242 243
266 261 255 250 246 242 244 244 241 238 237 232 230 228 226 227 229 238 239 239 240 242 242 239 237 236 236 235 234 230 227 229 232 231 229 232 231 233 233 233 230 232 232 234 230 235 239 247 250 245 251 236 232 246 223 221 237 247 261 271 259 222 220 231 237 234 228 230 240 244 244 238 233 236 238 240 244 246 247 247 244 243 244 243 243
269 265 263 259 254 245 246 245 246 246 245 243 238 236 237 237 240 242 241 238 238 240 242 241 237 233 231 224 227 231 232 233 232 232 227 232 231 235 234 230 232 231 235 234 232 234 237 242 248 252 240 248 233 236 185 180 236 255 234 238 255 249 236 228 231 236 226 229 239 240 235 242 252 251 252 250 244 244 246 246 244 243 242 242 241
274 272 273 270 264 257 250 245 249 251 250 250 248 245 243 243 242 243 243 241 237 239 239 243 239 235 234 234 235 233 231 233 231 230 228 226 230 237 235 226 230 232 237 237 236 236 237 241 248 246 250 247 237 226 216 211 216 231 232 221 252 261 261 259 248 226 228 243 243 243 251 241 233 236 236 235 231 235 242 238 245 240 239 241 241
292 293 288 279 273 266 262 257 252 247 246 248 248 246 242 242 243 244 244 244 240 236 234 237 238 234 234 235 235 233 232 232 233 233 233 232 231 234 237 223 226 230 233 238 237 235 238 242 243 245 244 246 238 222 227 224 228 243 256 247 249 256 266 265 264 240 206 233 255 255 247 239 244 243 237 239 236 226 240 229 223 229 232 231 234
291 291 291 288 280 273 267 265 258 249 247 251 264 250 243 242 248 250 248 247 240 234 236 235 239 236 236 234 238 233 232 236 237 236 235 235 237 239 241 239 233 225 230 235 237 233 235 239 244 242 244 252 245 219 226 232 225 231 238 234 243 251 248 258 268 275 199 204 236 247 252 223 221 245 249 251 246 242 241 235 237 231 235 238 236
288 285 280 271 275 277 275 265 259 259 257 265 272 261 248 244 239 245 251 252 249 243 236 236 239 238 237 237 236 236 232 232 232 235 236 237 238 239 240 241 242 242 237 233 238 236 232 241 244 239 242 247 254 229 232 229 235 236 233 229 231 234 242 246 253 253 217 179 219 232 259 214 213 237 241 246 240 233 233 241 245 245 237 236 237
291 281 270 267 260 256 255 261 262 260 258 249 249 249 249 246 243 240 250 253 257 256 250 244 242 239 240 241 244 237 238 231 233 238 241 237 233 236 239 242 244 245 248 251 253 253 253 246 245 248 236 242 249 241 217 222 218 235 234 233 237 237 241 249 254 256 232 180 215 249 254 237 194 235 239 239 242 248 250 246 246 248 246 243 242
269 270 274 277 279 270 262 254 258 259 274 358 347 321 297 279 267 256 252 254 255 259 259 257 251 246 240 242 244 244 240 236 235 236 239 241 242 233 230 226 236 245 243 245 248 252 250 252 261 262 254 214 246 247 226 218 219 232 234 240 228 232 238 242 250 256 50 154 192 248 270 232 178 227 244 236 224 243 242 247 248 248 248 247 244
275 267 275 290 288 284 285 277 269 297 44 360 14 12 14 358 321 264 255 255 254 255 254 253 255 251 252 248 247 249 245 240 249 254 244 244 242 245 244 240 229 229 233 234 231 231 238 238 244 258 271 279 282 290 303 277 253 261 273 285 294 288 291 309 310 256 229 205 199 209 260 253 185 228 244 244 235 239 237 250 248 252 254 253 248
274 249 232 188 314 342 325 312 253 122 38 12 1 9 2 1 347 344 276 254 265 275 277 293 307 339 354 342 310 302 313 333 31 37 23 303 252 249 248 254 265 284 267 340 359 4 273 248 247 256 273 287 302 293 293 288 276 273 281 290 292 279 287 279 276 218 228 195 191 200 255 258 181 227 263 263 259 253 240 239 249 257 260 259 261
303 311 123 58 31 16 10 17 39 87 31 7 3 2 5 355 352 31 36 110 244 248 332 13 40 42 37 30 42 49 48 45 14 30 12 28 64 132 202 331 36 53 298 315 14 30 32 346 291 276 257 259 266 275 272 257 239 230 260 275 260 227 260 266 266 256 247 168 207 200 235 267 164 209 261 247 240 253 243 235 237 252 257 260 260
307 331 331 10 29 24 20 21 359 360 6 1 356 1 4 7 351 4 20 115 89 66 61 43 46 53 44 41 41 52 53 51 44 46 26 7 29 360 339 338 316 314 309 359 332 56 129 132 124 87 316 297 296 289 283 275 260 217 182 234 223 175 241 238 263 262 272 167 210 185 203 240 143 212 251 266 257 215 222 236 232 251 261 278 271
341 345 348 355 16 22 23 22 9 14 9 355 351 3 6 5 346 262 228 195 156 142 111 19 47 57 53 61 59 62 70 56 52 46 42 36 45 45 1 334 289 284 14 18 357 335 341 344 332 355 316 264 266 286 287 285 280 265 244 254 260 227 250 254 255 285 283 250 207 174 202 254 187 222 186 284 277 228 88 12 255 284 297 284 287